Temperature
-1 -1 -1 -1 -1 -0 -0 -0 0 0 0 0 0 1 1 1 1 1 1 1 1 1 1 2 2 2 2 2 2 2 2 2 2 2 2 2 2 2 2 2 3 3 3
-2 -2 -2 -1 -1 -1 -1 -1 -1 -0 -0 -0 -0 0 0 0 1 1 1 1 1 1 1 1 1 1 1 1 1 1 1 1 1 2 2 2 2 2 2 2 2 2 2
-3 -3 -2 -2 -2 -2 -2 -2 -2 -1 -1 -1 -1 -1 -1 -0 -0 -0 -0 -0 0 0 0 0 1 1 1 1 1 1 1 1 1 1 1 1 1 1 1 1 1 1 1
-4 -3 -3 -3 -3 -3 -3 -2 -2 -2 -2 -2 -2 -2 -1 -1 -1 -1 -1 -1 -1 -0 -0 -0 -0 0 0 0 0 0 0 0 -0 0 0 0 0 0 0 0 0 0 1
-4 -4 -4 -4 -3 -3 -3 -3 -3 -3 -3 -3 -2 -2 -2 -2 -2 -2 -2 -1 -1 -1 -1 -1 -1 -1 -0 -0 -0 -0 -0 -0 -1 -1 -1 -1 -1 -1 -1 -0 -1 -0 -0
-5 -5 -4 -4 -4 -4 -4 -4 -4 -4 -4 -3 -3 -3 -3 -3 -3 -2 -2 -2 -2 -2 -2 -2 -2 -1 -1 -1 -1 -1 -1 -1 -1 -1 -1 -1 -1 -1 -1 -1 -1 -1 -1
-6 -5 -5 -5 -5 -5 -5 -5 -4 -4 -4 -4 -4 -4 -4 -4 -3 -3 -3 -3 -3 -3 -3 -2 -2 -2 -2 -2 -2 -2 -2 -2 -2 -2 -2 -2 -2 -1 -2 -2 -2 -2 -2
-6 -6 -6 -6 -5 -5 -5 -5 -5 -5 -5 -5 -5 -4 -4 -4 -4 -4 -4 -4 -4 -3 -3 -3 -3 -3 -3 -3 -3 -3 -3 -3 -2 -2 -2 -2 -2 -2 -2 -2 -2 -2 -3
-7 -7 -6 -6 -6 -6 -6 -6 -6 -6 -6 -5 -5 -5 -5 -5 -5 -4 -4 -4 -4 -4 -4 -4 -3 -3 -3 -3 -3 -3 -3 -3 -3 -3 -3 -3 -3 -3 -3 -3 -3 -3 -4
-7 -7 -7 -7 -7 -7 -6 -6 -6 -6 -6 -6 -6 -6 -6 -5 -5 -5 -5 -5 -5 -5 -4 -4 -4 -4 -4 -4 -4 -4 -4 -4 -4 -4 -4 -4 -4 -4 -4 -4 -4 -4 -4
-8 -8 -8 -8 -7 -7 -7 -7 -7 -7 -7 -7 -6 -6 -6 -6 -6 -5 -6 -6 -5 -5 -5 -5 -5 -5 -4 -4 -5 -4 -4 -4 -4 -4 -4 -4 -4 -4 -4 -4 -4 -4 -4
-8 -8 -8 -8 -8 -8 -8 -7 -7 -7 -7 -7 -7 -7 -7 -6 -6 -6 -6 -6 -6 -6 -6 -6 -5 -5 -5 -5 -5 -5 -5 -5 -5 -5 -5 -5 -5 -5 -5 -5 -5 -5 -5
-9 -9 -9 -8 -8 -8 -8 -8 -8 -8 -8 -8 -8 -8 -7 -7 -7 -7 -7 -7 -7 -7 -6 -6 -6 -6 -6 -6 -6 -6 -6 -6 -6 -6 -6 -6 -5 -5 -5 -5 -6 -6 -6
-9 -9 -9 -9 -9 -9 -9 -9 -9 -9 -9 -9 -9 -9 -8 -8 -8 -8 -8 -7 -7 -7 -7 -7 -7 -7 -7 -7 -7 -7 -7 -7 -7 -6 -6 -6 -6 -6 -6 -6 -6 -6 -6
-10 -10 -10 -10 -10 -9 -9 -9 -9 -9 -9 -9 -9 -9 -9 -9 -8 -8 -8 -8 -8 -8 -7 -7 -7 -7 -7 -7 -7 -7 -7 -7 -7 -7 -7 -7 -7 -7 -7 -7 -7 -7 -7
-10 -10 -10 -10 -10 -10 -10 -10 -10 -10 -9 -9 -9 -9 -9 -9 -9 -9 -9 -9 -8 -8 -8 -8 -8 -8 -8 -8 -8 -8 -8 -8 -8 -8 -8 -7 -7 -7 -7 -7 -7 -8 -8
-11 -11 -11 -11 -11 -11 -11 -10 -10 -10 -10 -10 -10 -10 -10 -10 -9 -9 -9 -9 -9 -9 -9 -9 -9 -9 -9 -9 -9 -8 -8 -8 -8 -8 -8 -8 -8 -8 -8 -8 -8 -8 -8
-11 -12 -12 -12 -11 -11 -11 -11 -11 -11 -11 -10 -10 -10 -10 -10 -10 -10 -10 -10 -10 -10 -10 -9 -9 -9 -9 -9 -9 -9 -9 -9 -9 -9 -9 -9 -8 -8 -9 -8 -9 -9 -9
-12 -12 -12 -12 -12 -12 -12 -12 -12 -12 -11 -11 -11 -11 -10 -10 -10 -10 -10 -11 -11 -10 -10 -10 -10 -10 -10 -10 -10 -10 -10 -10 -9 -9 -9 -9 -9 -9 -9 -9 -9 -9 -9
-12 -13 -13 -13 -13 -12 -12 -12 -12 -12 -12 -12 -12 -11 -11 -11 -11 -11 -11 -11 -11 -11 -11 -11 -11 -10 -10 -10 -10 -10 -10 -10 -10 -10 -10 -10 -10 -10 -10 -10 -10 -10 -10
-13 -13 -13 -13 -13 -13 -13 -13 -13 -13 -13 -12 -12 -12 -12 -12 -12 -12 -12 -12 -11 -11 -11 -11 -11 -11 -11 -11 -11 -11 -11 -11 -11 -11 -11 -10 -10 -10 -10 -10 -10 -10 -10
-14 -14 -14 -14 -14 -14 -13 -13 -13 -13 -13 -13 -13 -12 -12 -12 -12 -12 -12 -12 -12 -12 -12 -12 -12 -11 -11 -11 -11 -11 -11 -11 -11 -11 -11 -11 -11 -11 -11 -11 -11 -11 -11
-14 -14 -14 -14 -14 -14 -14 -14 -14 -14 -14 -14 -13 -13 -13 -13 -13 -13 -13 -13 -13 -13 -12 -12 -12 -12 -12 -12 -12 -12 -12 -12 -12 -11 -11 -11 -11 -11 -11 -11 -11 -11 -11
-15 -15 -15 -15 -15 -15 -15 -15 -15 -14 -14 -14 -14 -14 -14 -14 -14 -14 -13 -13 -13 -13 -13 -13 -13 -12 -12 -12 -12 -12 -12 -12 -12 -12 -12 -12 -12 -12 -12 -12 -12 -12 -12
-15 -15 -15 -15 -15 -15 -15 -15 -15 -15 -15 -15 -15 -15 -14 -14 -14 -14 -14 -14 -14 -14 -13 -13 -13 -13 -13 -13 -13 -13 -13 -13 -13 -12 -12 -12 -12 -12 -12 -12 -12 -12 -12
-16 -16 -16 -16 -16 -16 -16 -16 -16 -16 -16 -15 -15 -15 -15 -15 -15 -15 -15 -14 -14 -14 -14 -14 -13 -13 -13 -13 -13 -13 -13 -13 -13 -13 -13 -13 -13 -13 -13 -13 -13 -13 -13
Wind_Speed
3 3 2 2 2 2 3 3 3 3 4 4 4 4 5 5 5 5 6 6 7 7 6 7 7 6 5 5 5 5 6 5 6 4 4 4 5 5 5 5 5 5 5
3 3 3 2 2 2 3 3 3 4 4 4 4 4 5 5 5 6 6 7 7 7 7 8 8 6 7 6 5 6 6 6 6 6 4 5 5 6 5 5 4 5 5
4 3 3 2 3 3 3 3 3 3 3 3 4 4 4 5 5 6 6 6 7 7 7 8 8 8 8 6 6 6 5 5 5 6 5 4 4 4 5 4 4 4 4
4 3 3 3 3 4 3 3 3 3 3 3 3 3 4 4 5 5 5 6 6 6 6 7 8 8 9 8 7 7 6 6 5 5 5 4 4 4 5 4 4 4 3
4 3 3 3 3 3 3 3 3 3 3 3 3 3 4 4 4 5 6 6 6 6 6 7 7 7 8 7 6 7 6 5 5 6 6 4 5 4 5 4 4 3 3
4 4 4 3 3 3 3 3 3 3 3 3 3 4 4 4 4 6 6 6 6 6 6 6 6 7 7 8 8 8 7 7 7 7 6 7 7 6 5 5 5 4 4
4 4 4 4 4 4 4 4 4 4 4 4 4 4 5 5 5 6 7 6 6 6 7 6 6 6 7 7 7 7 8 8 8 8 9 9 8 8 7 7 7 6 4
4 4 5 5 4 4 4 4 4 4 4 4 4 5 5 5 6 7 7 7 6 6 7 7 7 7 7 7 7 7 7 8 8 8 7 7 7 7 7 7 6 4 3
4 5 5 5 5 5 5 5 5 4 4 4 4 5 5 5 6 6 6 5 5 6 6 6 7 7 8 8 7 7 6 6 7 7 7 7 8 8 8 5 5 5 4
5 6 6 5 6 6 6 6 5 4 5 4 4 4 5 5 6 6 6 4 5 5 5 6 7 8 9 10 8 8 8 7 6 6 6 6 7 9 10 9 7 7 5
6 6 6 6 6 6 6 5 5 4 4 5 4 4 5 5 6 6 7 4 5 5 5 5 6 9 10 10 9 8 9 7 6 6 6 5 5 6 7 7 7 7 6
5 6 6 6 5 5 5 5 4 4 5 5 4 4 4 4 5 6 8 7 6 5 5 5 5 8 10 10 8 9 9 7 5 5 5 6 6 5 5 6 6 6 5
5 5 5 5 5 5 5 5 4 4 4 4 4 4 4 3 4 6 8 8 8 6 5 6 6 7 8 8 9 9 8 6 6 6 7 6 5 5 5 4 4 3 3
5 5 5 4 5 4 4 4 4 4 4 4 4 4 4 4 4 3 4 5 6 6 5 6 7 7 6 6 7 7 6 6 6 6 6 5 4 5 5 5 4 4 3
5 5 4 4 4 4 4 4 4 4 5 5 4 5 4 5 5 5 4 4 4 4 4 3 4 4 4 4 4 5 5 6 6 5 5 5 5 5 5 4 4 4 5
4 4 3 3 3 3 3 3 4 5 6 7 7 7 6 6 6 7 7 7 7 7 5 4 5 5 5 5 5 5 5 6 6 5 5 6 6 6 5 5 5 5 6
4 4 3 3 3 3 3 3 3 3 5 5 6 7 6 6 6 6 6 6 6 6 5 4 5 5 5 5 5 5 5 5 5 6 6 6 6 6 6 6 6 5 6
4 4 4 3 3 3 3 3 3 3 3 3 4 5 6 6 6 5 5 4 4 4 4 5 5 5 5 5 5 5 5 5 5 6 6 6 6 6 6 6 6 6 6
3 3 3 3 3 3 3 3 3 3 3 4 3 4 5 5 4 4 4 3 3 3 3 4 4 4 4 4 4 5 5 5 5 5 6 6 6 6 6 6 6 8 7
3 4 4 3 3 3 3 3 3 3 3 3 4 4 3 3 2 3 2 3 3 3 3 3 3 4 4 4 4 4 4 5 5 5 6 6 6 6 7 7 7 6 6
3 3 4 3 2 2 3 3 3 3 3 3 3 4 4 2 2 2 2 2 3 3 3 3 3 4 4 3 4 4 5 5 5 5 5 6 6 6 6 6 6 6 6
2 2 2 2 2 2 3 3 3 3 3 4 3 4 4 2 2 2 3 3 3 3 3 3 3 4 4 4 4 5 5 5 5 5 5 6 6 6 6 6 6 6 6
2 2 2 3 3 3 3 3 3 3 3 3 3 3 3 3 3 3 3 3 3 3 3 3 4 4 4 4 5 5 5 6 5 5 5 6 6 6 6 7 8 7 7
2 3 3 3 3 3 3 3 3 3 3 3 3 3 3 3 3 4 4 4 4 4 4 4 4 4 5 5 5 6 7 7 7 7 7 7 7 6 6 7 7 8 8
2 2 3 3 3 3 3 3 3 3 3 4 4 4 4 4 4 4 4 4 4 4 4 5 4 5 5 6 6 6 7 8 9 8 7 7 7 8 7 7 7 7 7
3 3 3 3 3 3 3 4 4 4 4 4 4 4 4 4 4 4 4 4 4 4 4 4 5 5 6 6 7 8 9 9 10 10 8 7 7 7 7 7 8 8 7
Wind_Direction
304 296 294 287 276 261 251 247 243 236 220 214 219 223 215 216 213 205 208 205 208 210 208 209 214 214 211 213 218 217 218 216 229 231 216 208 215 218 219 222 219 220 218
297 290 286 283 275 265 264 264 255 245 230 218 218 226 219 216 217 213 210 208 210 211 211 210 212 210 211 212 216 219 220 217 223 223 217 211 218 217 216 220 223 224 223
305 292 286 284 278 271 268 267 261 253 247 231 221 228 228 219 214 215 213 212 211 213 214 214 213 210 212 212 214 218 220 214 221 212 213 213 217 213 214 222 227 229 232
315 301 292 288 284 279 274 269 267 263 254 246 233 233 236 227 217 212 212 216 216 215 216 219 217 215 215 211 213 216 213 208 208 200 203 207 214 212 213 215 226 226 234
314 304 295 294 288 281 278 275 273 269 265 260 249 235 237 229 223 215 211 213 217 218 218 220 220 218 218 215 213 213 211 208 210 200 206 210 210 206 215 214 222 226 242
306 300 295 291 284 280 280 277 272 269 267 263 255 243 239 233 234 223 214 215 217 219 221 221 220 216 215 215 218 219 216 214 213 207 215 213 217 218 214 211 213 224 249
304 304 295 288 279 276 278 274 270 269 267 261 258 253 250 244 235 230 222 218 220 221 222 222 221 218 215 219 218 217 221 228 233 223 217 220 219 216 212 215 219 229 244
305 308 305 296 287 279 273 271 272 271 264 260 260 260 258 254 245 238 229 222 225 227 227 226 224 220 216 216 218 221 227 229 232 233 226 225 221 217 216 220 224 228 252
300 303 305 301 289 280 272 269 269 268 265 262 262 260 257 259 251 242 234 228 227 232 233 231 226 225 216 210 214 218 228 235 228 227 225 221 215 212 207 204 205 212 239
290 294 295 294 291 277 271 270 269 265 263 261 260 256 256 258 249 238 233 233 232 234 237 235 227 224 217 213 215 217 225 232 226 222 218 218 215 210 207 211 211 215 228
288 290 291 290 289 283 274 269 266 262 259 257 257 258 255 256 246 238 236 233 233 234 235 235 233 221 218 217 219 224 226 225 223 215 213 211 210 210 211 219 222 221 223
288 287 288 290 289 285 274 269 264 256 251 252 253 260 260 258 253 244 239 239 240 238 238 238 233 222 222 220 223 226 224 219 216 209 209 210 208 211 213 217 222 230 239
284 283 287 290 287 282 276 267 258 249 245 249 250 255 263 267 260 253 244 243 240 241 239 232 230 224 225 228 224 222 219 218 213 213 213 215 212 209 206 207 210 213 230
278 281 284 285 286 284 276 267 255 246 242 243 249 256 262 264 263 254 248 247 242 242 237 229 227 227 226 227 221 218 220 217 215 218 216 213 204 201 206 205 207 202 213
277 278 283 281 281 283 279 270 263 257 250 245 249 252 254 258 260 259 259 250 243 234 221 218 219 219 219 223 221 217 215 212 215 214 209 206 203 205 208 208 210 212 221
276 280 280 281 281 280 281 285 278 271 273 264 263 264 264 266 268 264 261 254 246 232 223 218 217 219 221 222 222 219 214 214 215 213 209 206 206 206 207 208 208 212 215
269 275 275 275 275 277 278 279 287 289 280 276 273 272 267 267 270 270 267 258 241 226 225 220 220 220 221 222 222 220 220 217 213 213 212 209 207 207 206 206 205 209 215
274 277 277 273 274 275 277 280 281 283 293 299 299 292 284 277 276 278 275 268 246 235 231 226 223 220 218 220 221 220 219 215 213 213 210 208 207 207 208 209 209 211 212
279 279 278 278 276 276 278 282 283 281 283 291 300 304 306 298 294 293 279 262 250 245 235 230 228 224 221 221 221 219 217 216 215 213 211 208 208 208 210 212 213 212 215
281 287 289 285 283 283 281 279 280 280 282 288 292 296 303 298 287 290 277 266 262 255 243 235 232 231 226 222 219 216 214 215 214 215 215 212 211 211 212 214 214 215 218
290 293 291 288 285 284 281 278 276 276 278 282 290 294 286 276 277 283 283 278 274 268 256 245 240 237 230 223 219 217 217 219 217 216 217 215 212 214 216 217 218 219 219
291 295 292 286 287 287 286 282 279 277 281 284 294 305 302 282 278 277 275 277 276 277 272 260 249 242 236 230 226 224 224 225 222 218 219 218 217 217 216 216 217 217 217
290 291 294 292 288 291 293 292 291 290 287 288 291 297 300 292 285 280 280 283 283 281 280 268 258 253 248 244 239 234 232 232 230 225 223 221 218 217 217 216 217 218 219
288 288 291 295 294 290 289 292 294 295 295 294 292 289 289 289 290 291 290 289 287 283 282 277 265 258 254 254 250 244 240 241 237 230 227 225 224 223 221 219 220 219 221
290 290 293 294 293 291 291 292 293 294 294 294 295 294 293 292 291 291 290 288 285 282 283 282 277 268 258 253 251 251 248 245 242 236 227 227 226 225 222 221 219 219 219
300 295 291 290 289 290 289 290 293 295 294 294 293 293 293 292 291 290 289 287 285 285 287 284 279 278 272 262 257 254 253 249 246 242 234 227 225 223 219 219 218 219 220
Height
1474 1474 1474 1474 1474 1474 1474 1474 1474 1474 1475 1476 1477 1478 1479 1480 1481 1482 1484 1485 1488 1490 1491 1493 1496 1498 1500 1502 1504 1506 1508 1510 1511 1513 1515 1518 1520 1522 1524 1525 1527 1528 1529
1472 1471 1470 1470 1470 1470 1470 1470 1470 1471 1471 1472 1472 1473 1474 1475 1476 1477 1478 1480 1482 1484 1486 1488 1490 1493 1494 1497 1499 1500 1503 1504 1506 1507 1509 1512 1514 1517 1519 1520 1521 1523 1524
1469 1468 1467 1467 1466 1466 1466 1467 1466 1466 1466 1467 1467 1468 1469 1469 1470 1472 1473 1475 1476 1478 1480 1482 1485 1487 1488 1491 1493 1495 1497 1499 1501 1502 1504 1507 1509 1512 1513 1515 1516 1517 1519
1466 1465 1464 1463 1463 1463 1462 1462 1462 1462 1462 1462 1463 1463 1464 1465 1466 1467 1468 1470 1471 1473 1475 1477 1479 1481 1483 1485 1487 1489 1492 1494 1495 1497 1499 1502 1504 1506 1508 1509 1510 1512 1513
1464 1462 1461 1460 1460 1459 1459 1458 1458 1457 1458 1458 1458 1459 1460 1460 1461 1462 1464 1465 1466 1468 1470 1472 1474 1475 1477 1480 1482 1484 1486 1489 1491 1492 1494 1496 1498 1500 1502 1504 1505 1507 1508
1461 1460 1459 1457 1457 1456 1454 1454 1453 1453 1453 1454 1454 1455 1455 1456 1456 1458 1459 1460 1461 1463 1464 1466 1468 1470 1472 1474 1477 1479 1482 1484 1485 1487 1489 1491 1492 1495 1497 1498 1500 1501 1502
1458 1457 1456 1455 1453 1452 1451 1450 1450 1449 1449 1449 1450 1450 1450 1451 1452 1453 1454 1455 1456 1457 1459 1461 1462 1464 1466 1469 1471 1474 1476 1478 1481 1483 1484 1485 1487 1489 1492 1493 1494 1496 1497
1455 1453 1452 1451 1450 1449 1448 1446 1446 1445 1445 1445 1445 1445 1445 1446 1447 1448 1449 1450 1451 1452 1453 1455 1457 1459 1461 1463 1466 1468 1470 1472 1475 1477 1479 1480 1483 1485 1487 1488 1489 1490 1491
1451 1450 1448 1447 1446 1445 1444 1443 1442 1442 1441 1441 1441 1441 1441 1441 1442 1443 1444 1445 1445 1446 1448 1450 1451 1453 1455 1458 1460 1461 1463 1466 1469 1471 1473 1475 1477 1479 1481 1483 1483 1485 1485
1447 1446 1445 1443 1442 1441 1440 1439 1438 1438 1437 1437 1437 1437 1437 1437 1437 1438 1439 1439 1440 1441 1443 1444 1446 1448 1450 1452 1454 1456 1457 1460 1463 1465 1467 1469 1471 1473 1475 1476 1478 1479 1479
1443 1442 1441 1439 1438 1437 1436 1435 1434 1433 1433 1433 1432 1432 1432 1432 1432 1433 1434 1434 1435 1436 1437 1439 1440 1442 1444 1446 1448 1450 1452 1455 1457 1459 1461 1462 1465 1467 1468 1470 1472 1473 1474
1439 1438 1437 1435 1434 1433 1432 1431 1430 1429 1429 1428 1428 1427 1427 1427 1428 1428 1429 1430 1430 1431 1432 1433 1435 1437 1439 1441 1443 1445 1447 1449 1451 1453 1454 1456 1458 1460 1462 1464 1466 1467 1468
1435 1434 1432 1431 1430 1429 1428 1427 1426 1425 1425 1424 1424 1423 1423 1423 1423 1424 1424 1425 1425 1426 1427 1428 1430 1432 1433 1435 1437 1439 1441 1443 1445 1446 1448 1450 1452 1455 1457 1459 1460 1462 1463
1431 1430 1428 1427 1426 1425 1424 1423 1422 1421 1421 1420 1420 1419 1419 1419 1419 1419 1420 1420 1421 1421 1422 1423 1424 1426 1428 1430 1431 1433 1435 1437 1439 1441 1443 1445 1447 1449 1451 1453 1454 1455 1457
1427 1426 1424 1423 1422 1421 1420 1419 1418 1417 1417 1416 1416 1415 1415 1414 1415 1416 1415 1415 1415 1416 1417 1418 1419 1421 1422 1424 1426 1427 1429 1432 1434 1435 1437 1439 1441 1443 1445 1447 1449 1450 1451
1423 1422 1421 1419 1418 1417 1416 1415 1414 1413 1413 1412 1412 1412 1411 1411 1411 1411 1411 1411 1411 1412 1413 1413 1414 1415 1417 1419 1420 1422 1424 1426 1428 1430 1432 1434 1435 1437 1439 1441 1443 1444 1446
1420 1418 1417 1416 1415 1414 1413 1411 1410 1410 1409 1408 1408 1407 1407 1407 1407 1406 1406 1406 1407 1408 1408 1408 1409 1410 1412 1414 1415 1417 1418 1420 1422 1424 1426 1428 1429 1431 1433 1435 1437 1438 1440
1417 1415 1414 1413 1412 1411 1410 1409 1407 1406 1405 1404 1404 1404 1403 1403 1403 1402 1402 1402 1402 1403 1403 1404 1405 1406 1407 1409 1410 1412 1413 1415 1417 1418 1420 1422 1424 1426 1427 1429 1431 1433 1434
1413 1412 1411 1410 1409 1408 1407 1406 1405 1404 1402 1401 1400 1400 1400 1399 1399 1398 1398 1398 1398 1398 1399 1399 1400 1402 1403 1404 1406 1407 1408 1410 1411 1413 1414 1416 1418 1420 1422 1423 1425 1427 1429
1410 1409 1408 1407 1406 1405 1404 1403 1402 1401 1400 1398 1397 1397 1396 1396 1395 1395 1395 1395 1394 1394 1395 1396 1397 1398 1399 1400 1401 1402 1403 1404 1406 1407 1409 1411 1412 1414 1416 1418 1420 1421 1423
1408 1407 1406 1404 1403 1402 1401 1400 1399 1398 1397 1396 1395 1394 1394 1393 1392 1392 1392 1392 1392 1392 1392 1393 1394 1394 1395 1396 1396 1397 1398 1400 1401 1403 1404 1406 1407 1409 1411 1413 1414 1416 1417
1405 1404 1403 1402 1401 1400 1398 1397 1396 1395 1394 1393 1392 1391 1391 1390 1390 1389 1389 1389 1389 1389 1389 1390 1390 1390 1391 1391 1392 1393 1394 1395 1396 1398 1399 1400 1402 1404 1405 1407 1409 1410 1412
1403 1402 1401 1399 1398 1397 1396 1395 1393 1392 1391 1390 1389 1388 1388 1387 1387 1386 1386 1386 1386 1386 1386 1386 1386 1386 1386 1387 1388 1388 1389 1390 1392 1393 1394 1395 1397 1398 1400 1401 1403 1405 1406
1401 1399 1398 1397 1396 1394 1393 1392 1391 1389 1388 1387 1386 1385 1385 1384 1383 1383 1382 1382 1382 1382 1382 1381 1381 1381 1382 1382 1383 1384 1385 1386 1387 1388 1389 1390 1391 1392 1394 1395 1397 1399 1401
1398 1397 1395 1394 1393 1392 1390 1389 1388 1387 1386 1384 1383 1382 1381 1381 1380 1379 1379 1379 1378 1378 1378 1378 1378 1378 1378 1378 1379 1379 1380 1381 1382 1383 1384 1385 1385 1387 1388 1389 1391 1393 1395
1396 1394 1392 1391 1390 1388 1387 1386 1385 1384 1383 1381 1380 1379 1378 1378 1377 1376 1376 1375 1375 1374 1374 1374 1374 1374 1374 1374 1374 1375 1376 1376 1377 1378 1379 1380 1380 1381 1383 1384 1386 1388 1389